Weather History for Valdosta, GA

Change the Weather History Date:

Saturday, March 22, 2014

  Actual Average Record
Temperature  
Mean Temperature 68 °F -  
Max Temperature 78 °F 72 °F 86 °F (2011)
Min Temperature 58 °F 50 °F 42 °F (2004)
Cooling Degree Days 3    
Growing Degree Days 18 (Base 50)    
Moisture  
Dew Point 54 °F    
Average Humidity 65    
Maximum Humidity 88    
Minimum Humidity 39    
Precipitation  
Precipitation 0.00 in - - ()
Sea Level Pressure  
Sea Level Pressure 30.03 in    
Wind  
Wind Speed 3 mph (WNW)    
Max Wind Speed 9 mph    
Max Gust Speed -    
Visibility 10 miles    
Events      
Averages and records for this station are not official NWS values.
T = Trace of Precipitation, MM = Missing Value Source: NWS Daily Summary

Daily Weather History Graph

Daily Weather History Graph

Search for Another Location

Airport:

Trip Planner

Search our weather history database for the weather conditions in past years. The results will help you decide how hot, cold, wet, or windy it might be!

Date:

Astronomy

Mar. 22, 2014 Rise Set
Actual Time 7:34 AM EDT 7:45 PM EDT
Civil Twilight 7:09 AM EDT 8:09 PM EDT
Nautical Twilight 6:41 AM EDT 8:37 PM EDT
Astronomical Twilight 6:13 AM EDT 9:06 PM EDT
Moon 12:45 AM EDT (3/22) 11:35 AM EDT (3/22)
Length of Visible Light 12h 59m
Length of Day
12h 11m
Waning Gibbous, 65% of the Moon is Illuminated
Mar 22
Waning Gibbous
Mar 23
Last Quarter
Mar 30
New
Apr 7
First Quarter
Apr 15
Full

Hourly Weather History & Observations

Time (EDT) Temp. Dew Point Humidity Pressure Visibility Wind Dir Wind Speed Gust Speed Precip Events Conditions
12:58 AM 60.4 °F 49.6 °F 68% 30.08 in 10.0 mi Calm Calm - N/A   Overcast
1:58 AM 58.8 °F 49.8 °F 72% 30.06 in 10.0 mi ESE 3.5 mph - N/A   Clear
2:58 AM 58.1 °F 50.9 °F 77% 30.05 in 10.0 mi East 3.5 mph - N/A   Overcast
3:58 AM 59.2 °F 51.3 °F 75% 30.04 in 10.0 mi Calm Calm - N/A   Overcast
4:58 AM 58.8 °F 52.0 °F 78% 30.03 in 10.0 mi ESE 2.3 mph - N/A   Mostly Cloudy
5:58 AM 59.0 °F 52.9 °F 80% 30.04 in 10.0 mi East 1.2 mph - N/A   Mostly Cloudy
6:58 AM 58.5 °F 54.9 °F 88% 30.05 in 10.0 mi NNE 2.3 mph - N/A   Mostly Cloudy
7:58 AM 58.3 °F 53.2 °F 83% 30.06 in 10.0 mi Calm Calm - N/A   Mostly Cloudy
8:58 AM 60.4 °F 54.3 °F 80% 30.07 in 10.0 mi West 2.3 mph - N/A   Mostly Cloudy
9:58 AM 64.2 °F 55.9 °F 74% 30.08 in 10.0 mi West 4.6 mph - N/A   Partly Cloudy
10:58 AM 68.7 °F 57.4 °F 67% 30.07 in 10.0 mi West 5.8 mph - N/A   Mostly Cloudy
11:58 AM 72.0 °F 56.3 °F 58% 30.07 in 10.0 mi NNW 9.2 mph - N/A   Scattered Clouds
12:58 PM 74.8 °F 55.0 °F 50% 30.05 in 10.0 mi NNW 5.8 mph - N/A   Clear
1:58 PM 75.9 °F 55.9 °F 50% 30.01 in 10.0 mi Variable 4.6 mph - N/A   Mostly Cloudy
2:58 PM 77.0 °F 55.9 °F 48% 29.99 in 10.0 mi West 6.9 mph - N/A   Mostly Cloudy
3:58 PM 77.5 °F 55.2 °F 46% 29.96 in 10.0 mi Variable 3.5 mph - N/A   Partly Cloudy
4:58 PM 77.9 °F 55.4 °F 46% 29.96 in 10.0 mi Variable 5.8 mph - N/A   Scattered Clouds
5:58 PM 78.8 °F 52.0 °F 39% 29.96 in 10.0 mi West 6.9 mph - N/A   Partly Cloudy
6:58 PM 77.2 °F 52.7 °F 42% 29.98 in 10.0 mi West 4.6 mph - N/A   Clear
7:58 PM 72.9 °F 53.2 °F 50% 30.00 in 10.0 mi West 4.6 mph - N/A   Clear
8:58 PM 66.7 °F 55.2 °F 66% 30.01 in 10.0 mi North 1.2 mph - N/A   Clear
9:58 PM 63.3 °F 54.0 °F 71% 30.03 in 10.0 mi WNW 1.2 mph - N/A   Clear
10:58 PM 61.5 °F 51.8 °F 70% 30.04 in 10.0 mi SW 8.1 mph - N/A   Clear
11:58 PM 61.2 °F 53.6 °F 76% 30.05 in 10.0 mi WSW 6.9 mph - N/A   Clear